| time (UTC) | temp C | wind direction | speed KPH | gust KPH | rain 1hr cm | rain 24hr cm | rain mn cm | humidity % | barometer mb |
| 20260509185505 | 17 | 197 | 0.0 | 0.0 | 0.00 | 0.00 | 0.00 | 62 | 1003.0 |
| 20260509185004 | 17 | 182 | 0.0 | 0.0 | 0.00 | 0.00 | 0.00 | 65 | 1003.0 |
| 20260509184503 | 17 | 236 | 0.0 | 0.0 | 0.00 | 0.00 | 0.00 | 66 | 1003.2 |
| 20260509184003 | 17 | 217 | 0.0 | 0.0 | 0.00 | 0.00 | 0.00 | 66 | 1003.2 |
| 20260509183502 | 17 | 161 | 0.0 | 0.0 | 0.00 | 0.00 | 0.00 | 67 | 1003.2 |
| 20260509183002 | 17 | 212 | 0.0 | 0.0 | 0.00 | 0.00 | 0.00 | 66 | 1003.1 |
| 20260509182503 | 17 | 210 | 0.0 | 0.0 | 0.00 | 0.00 | 0.00 | 66 | 1003.2 |
| 20260509182002 | 17 | 187 | 0.0 | 0.0 | 0.00 | 0.00 | 0.00 | 68 | 1003.3 |
| 20260509181603 | 16 | 221 | 0.0 | 0.0 | 0.00 | 0.00 | 0.00 | 68 | 1003.2 |
| 20260509181100 | 17 | 184 | 0.0 | 0.0 | 0.00 | 0.00 | 0.00 | 67 | 1003.3 |
| 20260509180558 | 17 | 177 | 0.0 | 0.0 | 0.00 | 0.00 | 0.00 | 68 | 1003.3 |
| 20260509180101 | 17 | 199 | 0.0 | 0.0 | 0.00 | 0.00 | 0.00 | 68 | 1003.4 |
| 20260509175557 | 16 | 209 | 0.0 | 0.0 | 0.00 | 0.00 | 0.00 | 67 | 1003.4 |
| 20260509175057 | 17 | 212 | 0.0 | 0.0 | 0.00 | 0.00 | 0.00 | 66 | 1003.6 |
| 20260509174556 | 17 | 242 | 0.0 | 0.0 | 0.00 | 0.00 | 0.00 | 67 | 1003.6 |
| 20260509174059 | 17 | 277 | 0.0 | 0.0 | 0.00 | 0.00 | 0.00 | 67 | 1003.9 |
| 20260509173554 | 16 | 238 | 0.0 | 0.0 | 0.00 | 0.00 | 0.00 | 66 | 1004.0 |
| 20260509173054 | 16 | 240 | 0.0 | 0.0 | 0.00 | 0.00 | 0.00 | 66 | 1004.1 |
| 20260509172553 | 16 | 180 | 0.0 | 0.0 | 0.00 | 0.00 | 0.00 | 66 | 1004.0 |
| 20260509172055 | 16 | 208 | 0.0 | 0.0 | 0.00 | 0.00 | 0.00 | 66 | 1004.1 |
| 20260509171553 | 16 | 195 | 0.0 | 0.0 | 0.00 | 0.00 | 0.00 | 66 | 1004.0 |
| 20260509171052 | 16 | 198 | 0.0 | 0.0 | 0.00 | 0.00 | 0.00 | 65 | 1004.0 |
| 20260509170552 | 16 | 260 | 0.0 | 0.0 | 0.00 | 0.00 | 0.00 | 66 | 1004.1 |
| 20260509170053 | 16 | 247 | 0.0 | 0.0 | 0.00 | 0.00 | 0.00 | 67 | 1004.0 |
| 20260509165552 | 16 | 238 | 0.0 | 0.0 | 0.00 | 0.00 | 0.00 | 67 | 1004.0 |
| 20260509165050 | 16 | 264 | 0.0 | 0.0 | 0.00 | 0.00 | 0.00 | 68 | 1004.2 |
| 20260509164550 | 16 | 240 | 0.0 | 0.0 | 0.00 | 0.00 | 0.00 | 67 | 1004.3 |
| 20260509164050 | 16 | 199 | 0.0 | 0.0 | 0.00 | 0.00 | 0.00 | 67 | 1004.4 |
| 20260509163548 | 16 | 227 | 0.0 | 0.0 | 0.00 | 0.00 | 0.00 | 69 | 1004.4 |
| 20260509163046 | 16 | 202 | 0.0 | 0.0 | 0.00 | 0.00 | 0.00 | 69 | 1004.6 |
| 20260509162551 | 16 | 199 | 0.0 | 0.0 | 0.00 | 0.00 | 0.00 | 69 | 1004.6 |
| 20260509162047 | 16 | 246 | 0.0 | 0.0 | 0.00 | 0.00 | 0.00 | 69 | 1004.6 |
| 20260509161545 | 16 | 198 | 0.0 | 0.0 | 0.00 | 0.00 | 0.00 | 70 | 1004.6 |
| 20260509161043 | 15 | 171 | 0.0 | 0.0 | 0.00 | 0.00 | 0.00 | 70 | 1004.6 |
| 20260509160546 | 15 | 223 | 0.0 | 0.0 | 0.00 | 0.00 | 0.00 | 70 | 1004.6 |
| 20260509160043 | 15 | 200 | 0.0 | 0.0 | 0.00 | 0.00 | 0.00 | 69 | 1004.6 |
| 20260509155542 | 15 | 158 | 0.0 | 0.0 | 0.00 | 0.00 | 0.00 | 70 | 1004.6 |
| 20260509155042 | 15 | 231 | 0.0 | 0.0 | 0.00 | 0.00 | 0.00 | 71 | 1004.7 |
| 20260509154545 | 15 | 176 | 0.0 | 0.0 | 0.00 | 0.00 | 0.00 | 69 | 1004.8 |
| 20260509154045 | 15 | 212 | 0.0 | 0.0 | 0.00 | 0.00 | 0.00 | 70 | 1005.0 |
| 20260509153542 | 15 | 259 | 0.0 | 0.0 | 0.00 | 0.00 | 0.00 | 70 | 1004.9 |
| 20260509153055 | 15 | 190 | 0.0 | 0.0 | 0.00 | 0.00 | 0.00 | 72 | 1004.9 |
| 20260509152540 | 15 | 169 | 0.0 | 0.0 | 0.00 | 0.00 | 0.00 | 71 | 1004.9 |
| 20260509152040 | 15 | 214 | 0.0 | 0.0 | 0.00 | 0.00 | 0.00 | 72 | 1004.9 |
| 20260509151537 | 15 | 217 | 0.0 | 0.0 | 0.00 | 0.00 | 0.00 | 73 | 1005.0 |
| 20260509151037 | 14 | 199 | 0.0 | 0.0 | 0.00 | 0.00 | 0.00 | 73 | 1005.0 |
| 20260509150537 | 14 | 180 | 0.0 | 0.0 | 0.00 | 0.00 | 0.00 | 72 | 1005.0 |
| 20260509150037 | 14 | 188 | 0.0 | 0.0 | 0.00 | 0.00 | 0.00 | 72 | 1005.0 |
| 20260509145537 | 14 | 180 | 0.0 | 0.0 | 0.00 | 0.00 | 0.00 | 73 | 1005.0 |
| 20260509145037 | 14 | 274 | 0.0 | 0.0 | 0.00 | 0.00 | 0.00 | 73 | 1005.0 |
| 20260509144536 | 14 | 200 | 0.0 | 0.0 | 0.00 | 0.00 | 0.00 | 73 | 1005.0 |
| 20260509144036 | 14 | 267 | 0.0 | 0.0 | 0.00 | 0.00 | 0.00 | 74 | 1005.0 |
| 20260509143535 | 14 | 180 | 0.0 | 0.0 | 0.00 | 0.00 | 0.00 | 74 | 1005.0 |
| 20260509143035 | 13 | 211 | 0.0 | 0.0 | 0.00 | 0.00 | 0.00 | 73 | 1005.1 |
| 20260509142534 | 13 | 191 | 0.0 | 0.0 | 0.00 | 0.00 | 0.00 | 74 | 1005.1 |
| 20260509142033 | 13 | 186 | 0.0 | 0.0 | 0.00 | 0.00 | 0.00 | 75 | 1005.1 |
| 20260509141532 | 13 | 174 | 0.0 | 0.0 | 0.00 | 0.00 | 0.00 | 75 | 1005.2 |
| 20260509141034 | 13 | 221 | 0.0 | 0.0 | 0.00 | 0.00 | 0.00 | 76 | 1005.2 |
| 20260509140530 | 13 | 169 | 0.0 | 0.0 | 0.00 | 0.00 | 0.00 | 78 | 1005.3 |
| 20260509140035 | 13 | 225 | 0.0 | 0.0 | 0.00 | 0.00 | 0.00 | 78 | 1005.2 |
| 20260509135530 | 13 | 200 | 0.0 | 0.0 | 0.00 | 0.00 | 0.00 | 78 | 1005.4 |
| 20260509135029 | 13 | 215 | 0.0 | 0.0 | 0.00 | 0.00 | 0.00 | 78 | 1005.3 |
| 20260509134530 | 13 | 173 | 0.0 | 0.0 | 0.00 | 0.00 | 0.00 | 78 | 1005.4 |
| 20260509134029 | 13 | 190 | 0.0 | 0.0 | 0.00 | 0.00 | 0.00 | 78 | 1005.4 |
| 20260509133530 | 13 | 179 | 0.0 | 0.0 | 0.00 | 0.00 | 0.00 | 78 | 1005.4 |
| 20260509133029 | 13 | 179 | 0.0 | 0.0 | 0.00 | 0.00 | 0.00 | 78 | 1005.4 |
| 20260509132528 | 13 | 183 | 0.0 | 0.0 | 0.00 | 0.00 | 0.00 | 78 | 1005.4 |
| 20260509132030 | 13 | 182 | 0.0 | 0.0 | 0.00 | 0.00 | 0.00 | 78 | 1005.5 |
| 20260509131533 | 13 | 219 | 0.0 | 0.0 | 0.00 | 0.00 | 0.00 | 79 | 1005.5 |
| 20260509131026 | 12 | 159 | 0.0 | 0.0 | 0.00 | 0.00 | 0.00 | 80 | 1005.4 |
| 20260509130526 | 12 | 172 | 0.0 | 0.0 | 0.00 | 0.00 | 0.00 | 80 | 1005.4 |
| 20260509130023 | 12 | 184 | 0.0 | 0.0 | 0.00 | 0.00 | 0.00 | 80 | 1005.5 |
| 20260509125524 | 12 | 174 | 0.0 | 0.0 | 0.00 | 0.00 | 0.00 | 81 | 1005.6 |
| 20260509125023 | 12 | 186 | 0.0 | 0.0 | 0.00 | 0.00 | 0.00 | 81 | 1005.6 |
| 20260509124520 | 11 | 156 | 0.0 | 0.0 | 0.00 | 0.00 | 0.00 | 81 | 1005.7 |
| 20260509124018 | 11 | 178 | 0.0 | 0.0 | 0.00 | 0.00 | 0.00 | 81 | 1005.8 |
| 20260509123518 | 11 | 153 | 0.0 | 0.0 | 0.00 | 0.00 | 0.00 | 82 | 1005.8 |
| 20260509123019 | 11 | 171 | 0.0 | 0.0 | 0.00 | 0.00 | 0.00 | 82 | 1005.8 |
| 20260509122515 | 11 | 172 | 0.0 | 0.0 | 0.00 | 0.00 | 0.00 | 82 | 1006.0 |
| 20260509122014 | 11 | 156 | 0.0 | 0.0 | 0.00 | 0.00 | 0.00 | 82 | 1006.0 |
| 20260509121514 | 10 | 166 | 0.0 | 0.0 | 0.00 | 0.00 | 0.00 | 82 | 1006.0 |
| 20260509121012 | 10 | 144 | 0.0 | 0.0 | 0.00 | 0.00 | 0.00 | 82 | 1006.0 |
| 20260509120513 | 10 | 155 | 0.0 | 0.0 | 0.00 | 0.00 | 0.00 | 82 | 1006.0 |
| 20260509120011 | 10 | 146 | 0.0 | 0.0 | 0.00 | 0.00 | 0.00 | 83 | 1006.1 |
| 20260509115510 | 10 | 183 | 0.0 | 0.0 | 0.00 | 0.00 | 0.00 | 83 | 1006.1 |
| 20260509115009 | 10 | 150 | 0.0 | 0.0 | 0.00 | 0.00 | 0.00 | 83 | 1006.1 |
| 20260509114508 | 10 | 171 | 0.0 | 0.0 | 0.00 | 0.00 | 0.00 | 83 | 1006.0 |
| 20260509114010 | 9 | 159 | 0.0 | 0.0 | 0.00 | 0.00 | 0.00 | 84 | 1006.0 |
| 20260509113506 | 9 | 173 | 0.0 | 0.0 | 0.00 | 0.00 | 0.00 | 84 | 1006.0 |
| 20260509113005 | 9 | 155 | 0.0 | 0.0 | 0.00 | 0.00 | 0.00 | 84 | 1006.0 |
| 20260509112505 | 8 | 152 | 0.0 | 0.0 | 0.00 | 0.00 | 0.00 | 85 | 1006.0 |
| 20260509112002 | 8 | 153 | 0.0 | 0.0 | 0.00 | 0.00 | 0.00 | 85 | 1005.9 |
| 20260509111501 | 8 | 155 | 0.0 | 0.0 | 0.00 | 0.00 | 0.00 | 85 | 1006.1 |
| 20260509111100 | 8 | 155 | 0.0 | 0.0 | 0.00 | 0.00 | 0.00 | 85 | 1006.2 |
| 20260509110558 | 7 | 155 | 0.0 | 0.0 | 0.00 | 0.00 | 0.00 | 85 | 1006.2 |
| 20260509105556 | 7 | 155 | 0.0 | 0.0 | 0.00 | 0.00 | 0.00 | 85 | 1006.3 |
| 20260509105056 | 7 | 155 | 0.0 | 0.0 | 0.00 | 0.00 | 0.00 | 85 | 1006.5 |
| 20260509104556 | 7 | 155 | 0.0 | 0.0 | 0.00 | 0.00 | 0.00 | 85 | 1006.4 |
| 20260509104056 | 7 | 155 | 0.0 | 0.0 | 0.00 | 0.00 | 0.00 | 85 | 1006.3 |
| 20260509103555 | 7 | 155 | 0.0 | 0.0 | 0.00 | 0.00 | 0.00 | 85 | 1006.3 |
| 20260509103102 | 7 | 155 | 0.0 | 0.0 | 0.00 | 0.00 | 0.00 | 85 | 1006.2 |
| 20260509102556 | 7 | 155 | 0.0 | 0.0 | 0.00 | 0.00 | 0.00 | 85 | 1006.2 |
| 20260509102057 | 6 | 155 | 0.0 | 0.0 | 0.00 | 0.00 | 0.00 | 85 | 1006.2 |
| 20260509101600 | 6 | 155 | 0.0 | 0.0 | 0.00 | 0.00 | 0.00 | 85 | 1006.2 |
| 20260509101054 | 6 | 155 | 0.0 | 0.0 | 0.00 | 0.00 | 0.00 | 83 | 1006.2 |
| 20260509100554 | 6 | 155 | 0.0 | 0.0 | 0.00 | 0.00 | 0.00 | 83 | 1006.2 |
| 20260509100054 | 6 | 155 | 0.0 | 0.0 | 0.00 | 0.00 | 0.00 | 82 | 1006.1 |
| 20260509095554 | 6 | 155 | 0.0 | 0.0 | 0.00 | 0.00 | 0.00 | 82 | 1006.1 |
| 20260509095053 | 6 | 155 | 0.0 | 0.0 | 0.00 | 0.00 | 0.00 | 82 | 1006.1 |
| 20260509094553 | 6 | 155 | 0.0 | 0.0 | 0.00 | 0.00 | 0.00 | 82 | 1006.1 |
| 20260509094053 | 6 | 155 | 0.0 | 0.0 | 0.00 | 0.00 | 0.00 | 81 | 1006.2 |
| 20260509093552 | 6 | 155 | 0.0 | 0.0 | 0.00 | 0.00 | 0.00 | 80 | 1006.1 |
| 20260509093055 | 6 | 155 | 0.0 | 0.0 | 0.00 | 0.00 | 0.00 | 80 | 1006.2 |
| 20260509092553 | 6 | 155 | 0.0 | 0.0 | 0.00 | 0.00 | 0.00 | 79 | 1006.2 |
| 20260509092052 | 6 | 155 | 0.0 | 0.0 | 0.00 | 0.00 | 0.00 | 79 | 1006.2 |
| 20260509091617 | 6 | 155 | 0.0 | 0.0 | 0.00 | 0.00 | 0.00 | 79 | 1006.2 |
| 20260509091052 | 7 | 155 | 0.0 | 0.0 | 0.00 | 0.00 | 0.00 | 79 | 1006.1 |
| 20260509090553 | 7 | 155 | 0.0 | 0.0 | 0.00 | 0.00 | 0.00 | 79 | 1006.2 |
| 20260509090050 | 7 | 155 | 0.0 | 0.0 | 0.00 | 0.00 | 0.00 | 78 | 1006.2 |
| 20260509085549 | 7 | 155 | 0.0 | 0.0 | 0.00 | 0.00 | 0.00 | 78 | 1006.3 |
| 20260509085049 | 7 | 155 | 0.0 | 0.0 | 0.00 | 0.00 | 0.00 | 77 | 1006.3 |
| 20260509084550 | 7 | 155 | 0.0 | 0.0 | 0.00 | 0.00 | 0.00 | 76 | 1006.4 |
| 20260509084049 | 7 | 155 | 0.0 | 0.0 | 0.00 | 0.00 | 0.00 | 76 | 1006.4 |
| 20260509083548 | 7 | 155 | 0.0 | 0.0 | 0.00 | 0.00 | 0.00 | 76 | 1006.4 |
| 20260509083052 | 7 | 155 | 0.0 | 0.0 | 0.00 | 0.00 | 0.00 | 75 | 1006.4 |
| 20260509082548 | 7 | 155 | 0.0 | 0.0 | 0.00 | 0.00 | 0.00 | 75 | 1006.4 |
| 20260509082051 | 7 | 155 | 0.0 | 0.0 | 0.00 | 0.00 | 0.00 | 75 | 1006.4 |
| 20260509081547 | 7 | 155 | 0.0 | 0.0 | 0.00 | 0.00 | 0.00 | 74 | 1006.3 |
| 20260509081045 | 7 | 155 | 0.0 | 0.0 | 0.00 | 0.00 | 0.00 | 74 | 1006.4 |
| 20260509080547 | 7 | 152 | 0.0 | 0.0 | 0.00 | 0.00 | 0.00 | 73 | 1006.5 |
| 20260509080051 | 7 | 152 | 0.0 | 0.0 | 0.00 | 0.00 | 0.00 | 73 | 1006.4 |
| 20260509075545 | 7 | 152 | 0.0 | 0.0 | 0.00 | 0.00 | 0.00 | 72 | 1006.6 |
| 20260509075045 | 7 | 152 | 0.0 | 0.0 | 0.00 | 0.00 | 0.00 | 71 | 1006.6 |
| 20260509074551 | 7 | 152 | 0.0 | 0.0 | 0.00 | 0.00 | 0.00 | 71 | 1006.6 |
| 20260509074043 | 7 | 152 | 0.0 | 0.0 | 0.00 | 0.00 | 0.00 | 70 | 1006.7 |
| 20260509073544 | 7 | 150 | 0.0 | 0.0 | 0.00 | 0.00 | 0.00 | 70 | 1006.7 |
| 20260509073113 | 7 | 148 | 0.0 | 0.0 | 0.00 | 0.00 | 0.00 | 69 | 1006.7 |
| 20260509072546 | 7 | 151 | 0.0 | 0.0 | 0.00 | 0.00 | 0.00 | 69 | 1006.7 |
| 20260509072041 | 7 | 151 | 0.0 | 0.0 | 0.00 | 0.00 | 0.00 | 69 | 1006.8 |
| 20260509071541 | 7 | 150 | 0.0 | 0.0 | 0.00 | 0.00 | 0.00 | 69 | 1006.9 |
| 20260509071039 | 7 | 142 | 0.0 | 0.0 | 0.00 | 0.00 | 0.00 | 70 | 1006.9 |
| 20260509070541 | 6 | 154 | 0.0 | 0.0 | 0.00 | 0.00 | 0.00 | 70 | 1006.9 |
| 20260509070038 | 6 | 177 | 0.0 | 0.0 | 0.00 | 0.00 | 0.00 | 71 | 1006.9 |
| 20260509065537 | 6 | 177 | 0.0 | 0.0 | 0.00 | 0.00 | 0.00 | 71 | 1007.0 |
| 20260509065036 | 6 | 177 | 0.0 | 0.0 | 0.00 | 0.00 | 0.00 | 70 | 1007.0 |
| 20260509064537 | 6 | 177 | 0.0 | 0.0 | 0.00 | 0.00 | 0.00 | 70 | 1007.1 |
| 20260509064035 | 6 | 177 | 0.0 | 0.0 | 0.00 | 0.00 | 0.00 | 70 | 1007.1 |
| 20260509063534 | 6 | 177 | 0.0 | 0.0 | 0.00 | 0.00 | 0.00 | 69 | 1007.2 |
| 20260509063035 | 6 | 177 | 0.0 | 0.0 | 0.00 | 0.00 | 0.00 | 69 | 1007.3 |
| 20260509062534 | 6 | 177 | 0.0 | 0.0 | 0.00 | 0.00 | 0.00 | 69 | 1007.3 |
| 20260509062033 | 6 | 177 | 0.0 | 0.0 | 0.00 | 0.00 | 0.00 | 69 | 1007.4 |
| 20260509061534 | 6 | 177 | 0.0 | 0.0 | 0.00 | 0.00 | 0.00 | 68 | 1007.5 |
| 20260509061032 | 6 | 177 | 0.0 | 0.0 | 0.00 | 0.00 | 0.00 | 68 | 1007.6 |
| 20260509060531 | 6 | 177 | 0.0 | 0.0 | 0.00 | 0.00 | 0.00 | 68 | 1007.7 |
| 20260509060042 | 6 | 196 | 0.0 | 0.0 | 0.00 | 0.00 | 0.00 | 68 | 1007.8 |
| 20260509055530 | 6 | 215 | 0.0 | 0.0 | 0.00 | 0.00 | 0.00 | 68 | 1007.9 |
| 20260509055033 | 6 | 221 | 0.0 | 0.0 | 0.00 | 0.00 | 0.00 | 68 | 1007.9 |
| 20260509054528 | 6 | 221 | 0.0 | 0.0 | 0.00 | 0.00 | 0.00 | 69 | 1007.9 |
| 20260509054028 | 6 | 221 | 0.0 | 0.0 | 0.00 | 0.00 | 0.00 | 69 | 1008.0 |
| 20260509053527 | 6 | 221 | 0.0 | 0.0 | 0.00 | 0.00 | 0.00 | 69 | 1008.1 |
| 20260509053032 | 6 | 222 | 0.0 | 0.0 | 0.00 | 0.00 | 0.00 | 69 | 1008.1 |
| 20260509052525 | 6 | 222 | 0.0 | 0.0 | 0.00 | 0.00 | 0.00 | 70 | 1008.2 |
| 20260509052025 | 6 | 222 | 0.0 | 0.0 | 0.00 | 0.00 | 0.00 | 70 | 1008.1 |
| 20260509051525 | 6 | 222 | 0.0 | 0.0 | 0.00 | 0.00 | 0.00 | 71 | 1008.2 |
| 20260509051023 | 5 | 222 | 0.0 | 0.0 | 0.00 | 0.00 | 0.00 | 72 | 1008.2 |
| 20260509050523 | 5 | 222 | 0.0 | 0.0 | 0.00 | 0.00 | 0.00 | 73 | 1008.3 |
| 20260509050022 | 5 | 222 | 0.0 | 0.0 | 0.00 | 0.00 | 0.00 | 73 | 1008.3 |
| 20260509045522 | 5 | 222 | 0.0 | 0.0 | 0.00 | 0.00 | 0.00 | 72 | 1008.3 |
| 20260509045020 | 5 | 222 | 0.0 | 0.0 | 0.00 | 0.00 | 0.00 | 72 | 1008.4 |
| 20260509044532 | 5 | 222 | 0.0 | 0.0 | 0.00 | 0.00 | 0.00 | 72 | 1008.5 |
| 20260509044021 | 5 | 222 | 0.0 | 0.0 | 0.00 | 0.00 | 0.00 | 72 | 1008.4 |
| 20260509043518 | 5 | 222 | 0.0 | 0.0 | 0.00 | 0.00 | 0.00 | 71 | 1008.5 |
| 20260509043024 | 5 | 222 | 0.0 | 0.0 | 0.00 | 0.00 | 0.00 | 70 | 1008.6 |
| 20260509042517 | 5 | 222 | 0.0 | 0.0 | 0.00 | 0.00 | 0.00 | 70 | 1008.7 |
| 20260509042018 | 5 | 222 | 0.0 | 0.0 | 0.00 | 0.00 | 0.00 | 69 | 1008.7 |
| 20260509041517 | 5 | 222 | 0.0 | 0.0 | 0.00 | 0.00 | 0.00 | 69 | 1008.8 |
| 20260509041016 | 5 | 222 | 0.0 | 0.0 | 0.00 | 0.00 | 0.00 | 69 | 1008.7 |
| 20260509040515 | 5 | 222 | 0.0 | 0.0 | 0.00 | 0.00 | 0.00 | 69 | 1008.6 |
| 20260509040014 | 5 | 222 | 0.0 | 0.0 | 0.00 | 0.00 | 0.00 | 69 | 1008.7 |
| 20260509035514 | 5 | 222 | 0.0 | 0.0 | 0.00 | 0.00 | 0.20 | 69 | 1008.8 |
| 20260509035015 | 5 | 222 | 0.0 | 0.0 | 0.00 | 0.00 | 0.20 | 69 | 1008.8 |
| 20260509034514 | 5 | 222 | 0.0 | 0.0 | 0.00 | 0.00 | 0.20 | 69 | 1009.0 |
| 20260509034017 | 5 | 222 | 0.0 | 0.0 | 0.00 | 0.00 | 0.20 | 69 | 1009.0 |
| 20260509033515 | 5 | 222 | 0.0 | 0.0 | 0.00 | 0.00 | 0.20 | 69 | 1009.0 |
| 20260509033014 | 5 | 222 | 0.0 | 0.0 | 0.00 | 0.00 | 0.20 | 68 | 1008.9 |
| 20260509032515 | 6 | 222 | 0.0 | 0.0 | 0.00 | 0.00 | 0.20 | 68 | 1009.1 |
| 20260509032014 | 6 | 222 | 0.0 | 0.0 | 0.00 | 0.00 | 0.20 | 67 | 1009.0 |
| 20260509031517 | 6 | 222 | 0.0 | 0.0 | 0.00 | 0.00 | 0.20 | 67 | 1009.1 |
| 20260509031013 | 6 | 222 | 0.0 | 0.0 | 0.00 | 0.00 | 0.20 | 67 | 1009.2 |
| 20260509030513 | 6 | 222 | 0.0 | 0.0 | 0.00 | 0.00 | 0.20 | 66 | 1009.2 |
| 20260509030012 | 6 | 222 | 0.0 | 0.0 | 0.00 | 0.00 | 0.20 | 66 | 1009.2 |
| 20260509025513 | 6 | 222 | 0.0 | 0.0 | 0.00 | 0.00 | 0.20 | 65 | 1009.2 |
| 20260509025012 | 6 | 222 | 0.0 | 0.0 | 0.00 | 0.00 | 0.20 | 64 | 1009.2 |
| 20260509024514 | 6 | 222 | 0.0 | 0.0 | 0.00 | 0.00 | 0.20 | 64 | 1009.2 |
| 20260509024013 | 6 | 222 | 0.0 | 0.0 | 0.00 | 0.00 | 0.20 | 63 | 1009.2 |
| 20260509023513 | 6 | 222 | 0.0 | 0.0 | 0.00 | 0.00 | 0.20 | 62 | 1009.3 |
| 20260509023013 | 7 | 222 | 0.0 | 0.0 | 0.00 | 0.00 | 0.20 | 60 | 1009.4 |
| 20260509022513 | 7 | 222 | 0.0 | 0.0 | 0.00 | 0.00 | 0.20 | 59 | 1009.4 |
| 20260509022012 | 7 | 222 | 0.0 | 0.0 | 0.00 | 0.00 | 0.20 | 59 | 1009.4 |
| 20260509021512 | 7 | 222 | 0.0 | 0.0 | 0.00 | 0.00 | 0.20 | 59 | 1009.3 |
| 20260509021011 | 7 | 222 | 0.0 | 0.0 | 0.00 | 0.00 | 0.20 | 59 | 1009.2 |
| 20260509020511 | 7 | 222 | 0.0 | 0.0 | 0.00 | 0.00 | 0.20 | 58 | 1009.3 |
| 20260509020011 | 7 | 222 | 0.0 | 0.0 | 0.00 | 0.00 | 0.20 | 57 | 1009.2 |
| 20260509015512 | 7 | 222 | 0.0 | 0.0 | 0.00 | 0.00 | 0.20 | 56 | 1009.1 |
| 20260509015011 | 8 | 222 | 0.0 | 0.0 | 0.00 | 0.00 | 0.20 | 54 | 1009.0 |
| 20260509014511 | 8 | 222 | 0.0 | 0.0 | 0.00 | 0.00 | 0.20 | 52 | 1008.9 |
| 20260509014010 | 8 | 222 | 0.0 | 0.0 | 0.00 | 0.00 | 0.20 | 51 | 1008.9 |
| 20260509013510 | 8 | 222 | 0.0 | 0.0 | 0.00 | 0.00 | 0.20 | 51 | 1008.9 |
| 20260509013011 | 8 | 222 | 0.0 | 0.0 | 0.00 | 0.00 | 0.20 | 50 | 1008.9 |
| 20260509012512 | 9 | 222 | 0.0 | 0.0 | 0.00 | 0.00 | 0.20 | 47 | 1008.8 |
| 20260509012010 | 9 | 222 | 0.0 | 0.0 | 0.00 | 0.00 | 0.20 | 45 | 1008.9 |
| 20260509011510 | 9 | 222 | 0.0 | 0.0 | 0.00 | 0.00 | 0.20 | 44 | 1008.9 |
| 20260509011010 | 10 | 222 | 0.0 | 0.0 | 0.00 | 0.00 | 0.20 | 43 | 1008.8 |
| 20260509010509 | 10 | 222 | 0.0 | 0.0 | 0.00 | 0.00 | 0.20 | 41 | 1008.8 |
| 20260509010016 | 10 | 222 | 0.0 | 0.0 | 0.00 | 0.00 | 0.20 | 40 | 1008.9 |
| 20260509005509 | 10 | 222 | 0.0 | 0.0 | 0.00 | 0.00 | 0.20 | 39 | 1008.9 |
| 20260509005009 | 11 | 222 | 0.0 | 0.0 | 0.00 | 0.00 | 0.20 | 37 | 1008.9 |
| 20260509004509 | 11 | 222 | 0.0 | 0.0 | 0.00 | 0.00 | 0.20 | 35 | 1008.9 |
| 20260509004009 | 11 | 222 | 0.0 | 0.0 | 0.00 | 0.00 | 0.20 | 35 | 1008.9 |
| 20260509003509 | 11 | 222 | 0.0 | 0.0 | 0.00 | 0.00 | 0.20 | 35 | 1008.8 |
| 20260509003018 | 11 | 219 | 0.0 | 0.0 | 0.00 | 0.00 | 0.20 | 35 | 1008.8 |
| 20260509002508 | 11 | 219 | 0.0 | 0.0 | 0.00 | 0.00 | 0.20 | 34 | 1008.8 |
| 20260509002008 | 11 | 221 | 0.0 | 0.0 | 0.00 | 0.00 | 0.20 | 34 | 1008.6 |
| 20260509001509 | 11 | 221 | 0.0 | 0.0 | 0.00 | 0.00 | 0.20 | 35 | 1008.6 |
| 20260509001007 | 12 | 221 | 0.0 | 0.0 | 0.00 | 0.00 | 0.20 | 34 | 1008.5 |
| 20260509000507 | 12 | 264 | 0.0 | 0.0 | 0.00 | 0.00 | 0.20 | 34 | 1008.5 |
| 20260509000008 | 12 | 238 | 0.0 | 0.0 | 0.00 | 0.00 | 0.20 | 33 | 1008.5 |
| 20260508235508 | 12 | 238 | 0.0 | 0.0 | 0.00 | 0.00 | 0.20 | 33 | 1008.4 |
| 20260508235008 | 12 | 236 | 0.0 | 0.0 | 0.00 | 0.00 | 0.20 | 32 | 1008.5 |
| 20260508234508 | 12 | 232 | 0.0 | 0.0 | 0.00 | 0.00 | 0.20 | 31 | 1008.5 |
| 20260508234007 | 12 | 180 | 0.0 | 0.0 | 0.00 | 0.00 | 0.20 | 32 | 1008.5 |
| 20260508233510 | 12 | 227 | 0.0 | 0.0 | 0.00 | 0.00 | 0.20 | 30 | 1008.5 |
| 20260508233007 | 12 | 171 | 0.0 | 0.0 | 0.00 | 0.00 | 0.20 | 30 | 1008.4 |
| 20260508232507 | 13 | 188 | 0.0 | 0.0 | 0.00 | 0.00 | 0.20 | 30 | 1008.5 |
| 20260508232007 | 13 | 211 | 0.0 | 0.0 | 0.00 | 0.00 | 0.20 | 29 | 1008.6 |
| 20260508231507 | 13 | 227 | 0.0 | 0.0 | 0.00 | 0.00 | 0.20 | 29 | 1008.5 |
| 20260508231006 | 13 | 205 | 0.0 | 0.0 | 0.00 | 0.00 | 0.20 | 30 | 1008.5 |
| 20260508230504 | 13 | 231 | 0.0 | 0.0 | 0.00 | 0.00 | 0.20 | 33 | 1008.5 |
| 20260508230007 | 13 | 226 | 0.0 | 0.0 | 0.00 | 0.00 | 0.20 | 35 | 1008.5 |
| 20260508225508 | 13 | 229 | 0.0 | 0.0 | 0.00 | 0.00 | 0.20 | 35 | 1008.5 |
| 20260508225004 | 13 | 214 | 0.0 | 0.0 | 0.00 | 0.00 | 0.20 | 36 | 1008.6 |
| 20260508224508 | 13 | 227 | 0.0 | 0.0 | 0.00 | 0.00 | 0.20 | 36 | 1008.6 |
| 20260508224003 | 13 | 209 | 0.0 | 0.0 | 0.00 | 0.00 | 0.20 | 37 | 1008.6 |
| 20260508223503 | 13 | 270 | 0.0 | 0.0 | 0.00 | 0.00 | 0.20 | 38 | 1008.6 |
| 20260508223013 | 13 | 271 | 0.0 | 0.0 | 0.00 | 0.00 | 0.20 | 36 | 1008.7 |
| 20260508222504 | 13 | 183 | 0.0 | 0.0 | 0.00 | 0.00 | 0.20 | 36 | 1008.7 |
| 20260508222003 | 13 | 190 | 0.0 | 0.0 | 0.00 | 0.00 | 0.20 | 36 | 1008.6 |
| 20260508221503 | 13 | 260 | 0.0 | 0.0 | 0.00 | 0.00 | 0.20 | 38 | 1008.6 |
| 20260508221004 | 13 | 222 | 0.0 | 0.0 | 0.00 | 0.00 | 0.20 | 36 | 1008.6 |
| 20260508220503 | 13 | 272 | 0.0 | 0.0 | 0.00 | 0.00 | 0.20 | 36 | 1008.7 |
| 20260508220002 | 13 | 244 | 0.0 | 0.0 | 0.00 | 0.00 | 0.20 | 36 | 1008.6 |
| 20260508215502 | 13 | 264 | 0.0 | 0.0 | 0.00 | 0.00 | 0.20 | 36 | 1008.7 |
| 20260508215002 | 13 | 273 | 0.0 | 0.0 | 0.00 | 0.00 | 0.20 | 37 | 1008.6 |
| 20260508214502 | 13 | 169 | 0.0 | 0.0 | 0.00 | 0.00 | 0.20 | 38 | 1008.6 |
| 20260508214001 | 13 | 238 | 0.0 | 0.0 | 0.00 | 0.00 | 0.20 | 37 | 1008.7 |
| 20260508213501 | 13 | 211 | 0.0 | 0.0 | 0.00 | 0.00 | 0.20 | 37 | 1008.6 |
| 20260508213002 | 13 | 292 | 0.0 | 0.0 | 0.00 | 0.00 | 0.20 | 38 | 1008.6 |
| 20260508212501 | 13 | 231 | 0.0 | 0.0 | 0.00 | 0.00 | 0.20 | 38 | 1008.6 |
| 20260508212000 | 13 | 255 | 0.0 | 0.0 | 0.00 | 0.00 | 0.20 | 39 | 1008.6 |
| 20260508211502 | 13 | 240 | 0.0 | 0.0 | 0.00 | 0.00 | 0.20 | 37 | 1008.5 |
| 20260508211100 | 13 | 232 | 0.0 | 0.0 | 0.00 | 0.00 | 0.20 | 38 | 1008.5 |
| 20260508210600 | 13 | 273 | 0.0 | 0.0 | 0.00 | 0.00 | 0.20 | 37 | 1008.5 |
| 20260508205559 | 13 | 279 | 0.0 | 0.0 | 0.00 | 0.00 | 0.20 | 38 | 1008.5 |
| 20260508205100 | 13 | 270 | 0.0 | 0.0 | 0.00 | 0.00 | 0.20 | 37 | 1008.5 |
| 20260508204602 | 14 | 242 | 0.0 | 0.0 | 0.00 | 0.00 | 0.20 | 36 | 1008.5 |
| 20260508204057 | 13 | 273 | 0.0 | 0.0 | 0.00 | 0.00 | 0.20 | 42 | 1008.6 |
| 20260508203557 | 13 | 196 | 0.0 | 0.0 | 0.00 | 0.00 | 0.20 | 38 | 1008.7 |
| 20260508203102 | 13 | 216 | 0.0 | 0.0 | 0.00 | 0.00 | 0.20 | 38 | 1008.8 |
| 20260508202557 | 13 | 206 | 0.0 | 0.0 | 0.00 | 0.00 | 0.20 | 38 | 1008.7 |
| 20260508202056 | 13 | 225 | 0.0 | 0.0 | 0.00 | 0.00 | 0.20 | 42 | 1008.9 |
| 20260508201557 | 13 | 235 | 0.0 | 0.0 | 0.00 | 0.00 | 0.20 | 38 | 1009.0 |
| 20260508201053 | 13 | 244 | 0.0 | 0.0 | 0.00 | 0.00 | 0.20 | 40 | 1009.0 |
| 20260508200552 | 13 | 223 | 0.0 | 0.0 | 0.00 | 0.00 | 0.20 | 43 | 1009.1 |
| 20260508200053 | 13 | 296 | 0.0 | 0.0 | 0.00 | 0.00 | 0.20 | 43 | 1009.1 |
| 20260508195550 | 13 | 157 | 0.0 | 0.0 | 0.00 | 0.00 | 0.20 | 45 | 1009.1 |
| 20260508195049 | 13 | 169 | 0.0 | 0.0 | 0.00 | 0.00 | 0.20 | 45 | 1009.2 |
| 20260508194555 | 13 | 232 | 0.0 | 0.0 | 0.00 | 0.00 | 0.20 | 47 | 1009.2 |
| 20260508194047 | 13 | 173 | 0.0 | 0.0 | 0.00 | 0.00 | 0.20 | 48 | 1009.4 |
| 20260508193546 | 12 | 175 | 0.0 | 0.0 | 0.00 | 0.00 | 0.20 | 50 | 1009.5 |
| 20260508193103 | 12 | 225 | 0.0 | 0.0 | 0.00 | 0.00 | 0.20 | 50 | 1009.5 |
| 20260508192546 | 12 | 173 | 0.0 | 0.0 | 0.00 | 0.00 | 0.20 | 52 | 1009.7 |
| 20260508192046 | 13 | 192 | 0.0 | 0.0 | 0.00 | 0.00 | 0.20 | 50 | 1009.7 |
| 20260508191546 | 13 | 178 | 0.0 | 0.0 | 0.00 | 0.00 | 0.20 | 51 | 1009.8 |
| 20260508191044 | 12 | 288 | 0.0 | 0.0 | 0.00 | 0.00 | 0.20 | 50 | 1009.8 |
| 20260508190544 | 12 | 180 | 0.0 | 0.0 | 0.00 | 0.00 | 0.20 | 53 | 1009.9 |
| 20260508190044 | 12 | 173 | 0.0 | 0.0 | 0.00 | 0.00 | 0.20 | 54 | 1010.0 |